Saturday, November 18, 2017, 5:59 PM EST
Back to Local

KESN, Easton / Newman Field

Location: Easton, MD, United States Lat: 38.8
Local Time: 5:59 PM EST (22:59 GMT) Lon: -76.067
Time Zone: US/Eastern Elev: 72 ft

Show me the last for .
Show Decoded

2017-11-18 16:45 METAR KESN 182145Z 20009KT 10SM SCT140 13/04 A2968 =
2017-11-18 15:45 METAR KESN 182045Z 19012KT 10SM SCT140 14/05 A2970 =
2017-11-18 14:45 METAR KESN 181945Z 20014G20KT 10SM SCT140 15/04 A2972 =
2017-11-18 13:45 METAR KESN 181845Z 21012G20KT 10SM SCT120 15/03 A2974 =
2017-11-18 12:52 METAR KESN 181752Z 19015G21KT 10SM SCT090 14/03 A2977 =
2017-11-18 11:50 METAR KESN 181650Z 20012G16KT 10SM SCT080 14/02 A2984 =
2017-11-18 10:50 METAR KESN 181550Z 20011G19KT 10SM BKN060 13/02 A2989 =
2017-11-18 09:56 METAR KESN 181456Z 20009G17KT 10SM BKN060 11/03 A2994 =
2017-11-18 08:47 METAR KESN 181347Z 20010G15KT 10SM BKN060 09/03 A2996 =
2017-11-18 07:58 METAR KESN 181258Z 18006KT 10SM SCT060 07/03 A2998 =
2017-11-18 06:50 METAR KESN 181150Z 18006KT 10SM SCT080 03/01 A3001 =
2017-11-18 05:52 METAR KESN 181052Z 19004KT 10SM SCT080 03/00 A3004 =
2017-11-18 04:35 METAR KESN 180935Z AUTO 17005KT 10SM CLR 02/01 A3006 RMK AO2 T00200006 =
2017-11-18 04:16 METAR KESN 180916Z AUTO 18003KT 10SM CLR 02/01 A3007 RMK AO2 T00200006 =
2017-11-18 03:56 METAR KESN 180856Z AUTO 00000KT 10SM CLR 02/00 A3007 RMK AO2 T00200000 =
2017-11-18 03:36 METAR KESN 180836Z AUTO 19003KT 10SM CLR 02/00 A3006 RMK AO2 T00171003 =
2017-11-18 03:16 METAR KESN 180816Z AUTO 00000KT 10SM CLR 03/00 A3007 RMK AO2 T00320003 =
2017-11-18 02:56 METAR KESN 180756Z AUTO 00000KT 10SM CLR 03/00 A3008 RMK AO2 T00301002 =
2017-11-18 02:36 METAR KESN 180736Z AUTO 18003KT 10SM CLR 02/00 A3009 RMK AO2 T00231003 =
2017-11-18 02:16 METAR KESN 180716Z AUTO 00000KT 10SM CLR 03/00 A3010 RMK AO2 T00321002 =
2017-11-18 01:56 METAR KESN 180656Z AUTO 19003KT 10SM CLR 03/00 A3010 RMK AO2 T00301001 =
2017-11-18 01:36 METAR KESN 180636Z AUTO 17003KT 10SM CLR 02/00 A3010 RMK AO2 T00221004 =
2017-11-18 01:16 METAR KESN 180616Z AUTO 00000KT 10SM CLR 02/M01 A3011 RMK AO2 T00191008 =
2017-11-18 00:56 METAR KESN 180556Z AUTO 18003KT 10SM CLR 01/M01 A3012 RMK AO2 T00081009 10045
                 20006 401150006 =
2017-11-18 00:36 METAR KESN 180536Z AUTO 00000KT 10SM CLR 01/M01 A3013 RMK AO2 T00071010 =
2017-11-18 00:16 METAR KESN 180516Z AUTO 00000KT 10SM CLR 01/M01 A3013 RMK AO2 T00091007 =
2017-11-17 23:56 METAR KESN 180456Z AUTO 00000KT 10SM CLR 02/M01 A3014 RMK AO2 T00161006 =
2017-11-17 23:36 METAR KESN 180436Z AUTO 00000KT 10SM CLR 01/M01 A3014 RMK AO2 T00111006 =
2017-11-17 23:16 METAR KESN 180416Z AUTO 00000KT 10SM CLR 01/M01 A3014 RMK AO2 T00111007 =
2017-11-17 22:56 METAR KESN 180356Z AUTO 00000KT 10SM CLR 01/00 A3014 RMK AO2 T00131005 =
2017-11-17 22:36 METAR KESN 180336Z AUTO 00000KT 10SM CLR 02/M01 A3016 RMK AO2 T00181006 =
2017-11-17 22:16 METAR KESN 180316Z AUTO 00000KT 10SM CLR 02/00 A3016 RMK AO2 T00231003 =
2017-11-17 21:56 METAR KESN 180256Z AUTO 00000KT 10SM CLR 03/00 A3016 RMK AO2 T00251003 =
2017-11-17 21:50 METAR KESN 180250Z 00000KT 10SM SKC 02/M01 A3016 =
2017-11-17 20:45 METAR KESN 180145Z 00000KT 10SM SKC 03/00 A3016 =
2017-11-17 19:50 METAR KESN 180050Z 00000KT 10SM SKC 03/M01 A3017 =
2017-11-17 18:45 METAR KESN 172345Z 00000KT 10SM SKC 04/M01 A3018 =

Support USWX by starting your Amazon purchase here.